TimeEDT,TemperatureF,Dew PointF,Humidity,Sea Level PressureIn,VisibilityMPH,Wind Direction,Wind SpeedMPH,Gust SpeedMPH,PrecipitationIn,Events,Conditions,WindDirDegrees,DateUTC
12:58 AM,74.1,66.2,76,30.04,10.0,NW,4.6,-,N/A,,Clear,320,2013-08-05 04:58:00
1:58 AM,72.5,66.9,83,30.02,10.0,NNW,2.3,-,N/A,,Clear,330,2013-08-05 05:58:00
2:58 AM,72.0,66.2,82,30.00,10.0,NNW,5.8,-,N/A,,Clear,330,2013-08-05 06:58:00
3:53 AM,71.6,66.2,83,30.03,10.0,NW,3.5,-,N/A,,Mostly Cloudy,320,2013-08-05 07:53:00
3:58 AM,71.1,66.0,84,30.00,10.0,NNW,4.6,-,N/A,,Mostly Cloudy,340,2013-08-05 07:58:00
4:58 AM,70.7,65.8,85,30.00,10.0,NNW,5.8,-,N/A,,Scattered Clouds,330,2013-08-05 08:58:00
5:58 AM,70.7,65.5,83,30.00,10.0,North,3.5,-,N/A,,Mostly Cloudy,10,2013-08-05 09:58:00
6:58 AM,70.5,65.5,84,30.01,10.0,North,4.6,-,N/A,,Mostly Cloudy,360,2013-08-05 10:58:00
7:58 AM,71.6,65.8,82,30.04,8.0,NNW,2.3,-,N/A,,Mostly Cloudy,340,2013-08-05 11:58:00
8:58 AM,73.8,67.3,80,30.05,10.0,North,3.5,-,N/A,,Mostly Cloudy,360,2013-08-05 12:58:00
9:23 AM,77.0,69.8,78,30.07,10.0,NNE,8.1,-,N/A,,Mostly Cloudy,30,2013-08-05 13:23:00
9:46 AM,77.0,69.8,78,30.08,10.0,NNE,5.8,-,N/A,,Overcast,30,2013-08-05 13:46:00
9:58 AM,76.3,70.0,81,30.05,7.0,North,8.1,-,N/A,,Overcast,360,2013-08-05 13:58:00
10:23 AM,77.0,69.8,78,30.08,7.0,NNE,8.1,-,N/A,,Overcast,20,2013-08-05 14:23:00
10:58 AM,78.1,71.2,79,30.05,7.0,NE,5.8,-,N/A,,Overcast,40,2013-08-05 14:58:00
11:58 AM,80.6,72.7,77,30.05,10.0,Variable,4.6,-,N/A,,Mostly Cloudy,0,2013-08-05 15:58:00
12:03 PM,80.6,71.6,74,30.07,10.0,Variable,4.6,-,N/A,,Mostly Cloudy,0,2013-08-05 16:03:00
12:53 PM,82.4,73.4,74,30.06,10.0,East,3.5,-,N/A,,Mostly Cloudy,100,2013-08-05 16:53:00
12:58 PM,82.2,73.0,74,30.04,10.0,ENE,5.8,-,N/A,,Mostly Cloudy,60,2013-08-05 16:58:00
1:58 PM,83.5,69.8,63,30.02,10.0,Variable,2.3,-,N/A,,Mostly Cloudy,0,2013-08-05 17:58:00
2:58 PM,84.2,70.9,64,30.01,10.0,SSW,3.5,-,N/A,,Overcast,210,2013-08-05 18:58:00
3:58 PM,85.3,71.4,63,30.00,10.0,East,2.3,-,N/A,,Overcast,80,2013-08-05 19:58:00
4:58 PM,84.7,70.9,63,29.99,10.0,Variable,1.2,-,N/A,,Overcast,0,2013-08-05 20:58:00
5:58 PM,86.4,66.6,51,29.99,10.0,Variable,4.6,-,N/A,,Overcast,0,2013-08-05 21:58:00
6:58 PM,84.0,69.3,61,29.99,10.0,NW,6.9,-,N/A,,Mostly Cloudy,310,2013-08-05 22:58:00
7:58 PM,80.2,68.2,67,30.00,10.0,WNW,8.1,-,N/A,,Overcast,290,2013-08-05 23:58:00
8:58 PM,78.4,66.6,67,30.01,10.0,WNW,4.6,-,N/A,,Overcast,290,2013-08-06 00:58:00
9:58 PM,77.4,67.5,71,30.00,10.0,SW,3.5,-,N/A,,Mostly Cloudy,220,2013-08-06 01:58:00
10:58 PM,73.4,68.7,85,30.01,10.0,SSW,2.3,-,N/A,,Mostly Cloudy,200,2013-08-06 02:58:00
11:58 PM,73.4,69.1,86,30.00,10.0,Calm,Calm,-,N/A,,Mostly Cloudy,0,2013-08-06 03:58:00